WZZ274 LZIB-EGGW

Flight info

Callsign WZZ274
Flight time 1h 55m
Altitude 38000
Route TOVKA DCT DITIS DCT OKG DCT VELIS DCT SWALM DCT TIVUN DCT BUDIP DCT ODVIL DCT NOGRO M40 RINIS
Aircraft A321/M-SDE1E2E3FGIJ1J4RWXY/LB1

Departure

Time 2026-04-30 08:50
Airport M. R. Štefánik Airport (LZIB)

Arrival

Time 2026-04-30 10:45
Airport London Luton Airport (EGGW)
Time Latitude Longitude Altitude Speed Heading
2026-04-30 08:25 48.16974 17.20175 432 ft 0 kts 314°
2026-04-30 08:40 48.16973 17.20176 459 ft 2 kts 314°
2026-04-30 08:41 48.16957 17.20205 424 ft 4 kts 297°
2026-04-30 08:41 48.16950 17.20241 418 ft 4 kts 263°
2026-04-30 08:41 48.16957 17.20270 425 ft 1 kts 224°
2026-04-30 08:41 48.16960 17.20275 420 ft 0 kts 224°
2026-04-30 08:45 48.16954 17.20266 425 ft 2 kts 224°
2026-04-30 08:45 48.16945 17.20253 418 ft 3 kts 224°
2026-04-30 08:45 48.16915 17.20209 425 ft 6 kts 224°
2026-04-30 08:45 48.16894 17.20179 425 ft 7 kts 224°
2026-04-30 08:46 48.16850 17.20155 429 ft 7 kts 156°
2026-04-30 08:46 48.16811 17.20215 421 ft 9 kts 134°
2026-04-30 08:46 48.16764 17.20285 427 ft 10 kts 135°
2026-04-30 08:46 48.16710 17.20353 425 ft 9 kts 163°
2026-04-30 08:47 48.16653 17.20306 423 ft 10 kts 219°
2026-04-30 08:47 48.16595 17.20231 424 ft 12 kts 221°
2026-04-30 08:47 48.16529 17.20147 428 ft 13 kts 220°
2026-04-30 08:47 48.16456 17.20053 429 ft 14 kts 220°
2026-04-30 08:48 48.16376 17.19951 427 ft 16 kts 220°
2026-04-30 08:48 48.16293 17.19844 434 ft 13 kts 221°
2026-04-30 08:48 48.16232 17.19784 428 ft 11 kts 194°
2026-04-30 08:48 48.16162 17.19828 431 ft 12 kts 135°
2026-04-30 08:49 48.16107 17.19932 425 ft 13 kts 110°
2026-04-30 08:49 48.16165 17.20069 422 ft 26 kts 44°
2026-04-30 08:49 48.16499 17.20544 421 ft 104 kts 44°
2026-04-30 08:49 48.17175 17.21528 488 ft 158 kts 43°
2026-04-30 08:50 48.17933 17.22643 1312 ft 150 kts 40°
2026-04-30 08:50 48.18685 17.23722 2160 ft 149 kts 40°
2026-04-30 08:50 48.19428 17.24785 2935 ft 147 kts 41°
2026-04-30 08:50 48.20168 17.25846 3646 ft 147 kts 41°
2026-04-30 08:51 48.20951 17.26969 4135 ft 166 kts 42°
2026-04-30 08:51 48.21849 17.28249 4506 ft 189 kts 42°
2026-04-30 08:51 48.23069 17.29055 5020 ft 204 kts
2026-04-30 08:51 48.24408 17.28275 5641 ft 219 kts 321°
2026-04-30 08:52 48.25098 17.26206 6304 ft 232 kts 278°
2026-04-30 08:52 48.24855 17.23815 7054 ft 234 kts 254°
2026-04-30 08:52 48.24231 17.21558 7694 ft 236 kts 247°
2026-04-30 08:52 48.23610 17.19284 8284 ft 238 kts 262°
2026-04-30 08:53 48.23821 17.16835 8658 ft 242 kts 303°
2026-04-30 08:53 48.24894 17.15010 9436 ft 236 kts 324°
2026-04-30 08:53 48.26049 17.13219 10315 ft 243 kts 311°
2026-04-30 08:53 48.26996 17.11090 11070 ft 247 kts 307°
2026-04-30 08:54 48.27947 17.08837 11548 ft 267 kts 307°
2026-04-30 08:54 48.28980 17.06370 11850 ft 290 kts 306°
2026-04-30 08:54 48.30092 17.03694 12125 ft 314 kts 306°
2026-04-30 08:54 48.31285 17.00813 12471 ft 333 kts 305°
2026-04-30 08:55 48.32522 16.97813 13146 ft 341 kts 305°
2026-04-30 08:55 48.33774 16.94767 13922 ft 345 kts 305°
2026-04-30 08:55 48.35042 16.91683 14646 ft 349 kts 305°
2026-04-30 08:55 48.36325 16.88565 15357 ft 352 kts 306°
2026-04-30 08:56 48.37626 16.85416 16096 ft 356 kts 306°
2026-04-30 08:56 48.38937 16.82244 16847 ft 359 kts 306°
2026-04-30 08:56 48.40257 16.79040 17569 ft 362 kts 306°
2026-04-30 08:56 48.41588 16.75804 18309 ft 366 kts 306°
2026-04-30 08:57 48.42932 16.72537 18986 ft 369 kts 306°
2026-04-30 08:57 48.44291 16.69231 19623 ft 372 kts 306°
2026-04-30 08:57 48.45656 16.65900 20253 ft 376 kts 306°
2026-04-30 08:57 48.47035 16.62527 20881 ft 380 kts 306°
2026-04-30 08:58 48.48427 16.59116 21469 ft 384 kts 306°
2026-04-30 08:58 48.49835 16.55670 22091 ft 388 kts 306°
2026-04-30 08:58 48.51254 16.52191 22730 ft 392 kts 306°
2026-04-30 08:58 48.52685 16.48671 23334 ft 395 kts 306°
2026-04-30 08:59 48.54129 16.45118 23931 ft 399 kts 307°
2026-04-30 08:59 48.55566 16.41577 24420 ft 403 kts 307°
2026-04-30 08:59 48.57035 16.37959 24914 ft 406 kts 307°
2026-04-30 08:59 48.58514 16.34308 25381 ft 409 kts 307°
2026-04-30 09:00 48.60007 16.30621 25853 ft 413 kts 307°
2026-04-30 09:00 48.61506 16.26902 26321 ft 416 kts 307°
2026-04-30 09:00 48.63018 16.23153 26758 ft 420 kts 308°
2026-04-30 09:00 48.64545 16.19365 27194 ft 423 kts 308°
2026-04-30 09:01 48.66082 16.15554 27662 ft 426 kts 308°
2026-04-30 09:01 48.67628 16.11707 28108 ft 429 kts 308°
2026-04-30 09:01 48.69182 16.07834 28556 ft 432 kts 308°
2026-04-30 09:01 48.70747 16.03932 29003 ft 435 kts 308°
2026-04-30 09:02 48.73905 15.96029 29853 ft 442 kts 308°
2026-04-30 09:02 48.75495 15.92031 30262 ft 445 kts 308°
2026-04-30 09:02 48.77094 15.88004 30605 ft 448 kts 309°
2026-04-30 09:03 48.78707 15.83946 30928 ft 451 kts 309°
2026-04-30 09:03 48.80329 15.79862 31277 ft 454 kts 309°
2026-04-30 09:03 48.81959 15.75752 31630 ft 456 kts 309°
2026-04-30 09:03 48.83597 15.71612 32014 ft 457 kts 309°
2026-04-30 09:04 48.85229 15.67478 32520 ft 456 kts 308°
2026-04-30 09:04 48.86854 15.63352 33008 ft 455 kts 308°
2026-04-30 09:04 48.88476 15.59233 33480 ft 454 kts 308°
2026-04-30 09:04 48.90093 15.55118 33958 ft 453 kts 308°
2026-04-30 09:05 48.91705 15.51009 34384 ft 452 kts 308°
2026-04-30 09:05 48.93313 15.46900 34724 ft 453 kts 309°
2026-04-30 09:05 48.94923 15.42783 35061 ft 453 kts 308°
2026-04-30 09:05 48.96511 15.38718 35422 ft 452 kts 308°
2026-04-30 09:06 48.98113 15.34603 35798 ft 451 kts 308°
2026-04-30 09:06 48.99706 15.30499 36180 ft 450 kts 307°
2026-04-30 09:06 49.01293 15.26408 36565 ft 448 kts 307°
2026-04-30 09:06 49.02878 15.22323 36946 ft 447 kts 307°
2026-04-30 09:07 49.04455 15.18257 37305 ft 445 kts 307°
2026-04-30 09:07 49.06025 15.14205 37616 ft 444 kts 307°
2026-04-30 09:07 49.07593 15.10154 37918 ft 443 kts 307°
2026-04-30 09:07 49.09159 15.06111 38197 ft 443 kts 306°
2026-04-30 09:08 49.10726 15.02060 38424 ft 443 kts 306°
2026-04-30 09:08 49.12288 14.98011 38485 ft 442 kts 306°
2026-04-30 09:08 49.15388 14.89924 38479 ft 441 kts 306°
2026-04-30 09:09 49.18481 14.81836 38482 ft 441 kts 306°
2026-04-30 09:09 49.21573 14.73742 38476 ft 441 kts 306°
2026-04-30 09:10 49.24664 14.65612 38488 ft 442 kts 306°
2026-04-30 09:10 49.27750 14.57466 38494 ft 443 kts 306°
2026-04-30 09:11 49.30836 14.49291 38502 ft 444 kts 306°
2026-04-30 09:11 49.33921 14.41094 38509 ft 444 kts 306°
2026-04-30 09:12 49.37003 14.32890 38488 ft 444 kts 306°
2026-04-30 09:12 49.40059 14.24729 38501 ft 444 kts 306°
2026-04-30 09:13 49.43155 14.16439 38509 ft 444 kts 306°
2026-04-30 09:13 49.46201 14.08259 38511 ft 444 kts 306°
2026-04-30 09:14 49.49260 14.00005 38516 ft 444 kts 306°
2026-04-30 09:14 49.52315 13.91745 38499 ft 444 kts 306°
2026-04-30 09:15 49.55368 13.83477 38508 ft 444 kts 306°
2026-04-30 09:15 49.58413 13.75203 38506 ft 444 kts 306°
2026-04-30 09:16 49.61439 13.66915 38492 ft 440 kts 306°
2026-04-30 09:16 49.64405 13.58746 38472 ft 438 kts 306°
2026-04-30 09:17 49.67421 13.50506 38490 ft 443 kts 306°
2026-04-30 09:17 49.70444 13.42213 38492 ft 443 kts 306°
2026-04-30 09:18 49.73450 13.33885 38493 ft 444 kts 306°
2026-04-30 09:18 49.76448 13.25545 38495 ft 444 kts 306°
2026-04-30 09:19 49.79429 13.17229 38501 ft 445 kts 306°
2026-04-30 09:19 49.82433 13.08850 38509 ft 445 kts 306°
2026-04-30 09:20 49.85434 13.00453 38513 ft 446 kts 305°
2026-04-30 09:20 49.88426 12.92037 38518 ft 446 kts 305°
2026-04-30 09:21 49.91407 12.83616 38515 ft 445 kts 305°
2026-04-30 09:21 49.94386 12.75187 38482 ft 445 kts 305°
2026-04-30 09:22 49.97355 12.66764 38496 ft 444 kts 305°
2026-04-30 09:22 50.00319 12.58339 38511 ft 444 kts 305°
2026-04-30 09:23 50.03270 12.49900 38510 ft 444 kts 305°
2026-04-30 09:23 50.06190 12.41424 38469 ft 447 kts 301°
2026-04-30 09:24 50.08343 12.32253 38489 ft 453 kts 295°
2026-04-30 09:24 50.10356 12.23021 38496 ft 453 kts 295°
2026-04-30 09:25 50.12378 12.13710 38490 ft 454 kts 295°
2026-04-30 09:25 50.14394 12.04387 38491 ft 454 kts 295°
2026-04-30 09:26 50.16401 11.95056 38455 ft 454 kts 295°
2026-04-30 09:26 50.18400 11.85719 38474 ft 454 kts 294°
2026-04-30 09:27 50.20394 11.76372 38480 ft 454 kts 294°
2026-04-30 09:27 50.22381 11.67018 38486 ft 454 kts 294°
2026-04-30 09:28 50.24358 11.57659 38491 ft 454 kts 294°
2026-04-30 09:28 50.26326 11.48301 38471 ft 453 kts 294°
2026-04-30 09:29 50.28348 11.38977 38486 ft 452 kts 295°
2026-04-30 09:29 50.30322 11.29626 38494 ft 454 kts 293°
2026-04-30 09:30 50.32176 11.20179 38497 ft 454 kts 293°
2026-04-30 09:30 50.34079 11.10766 38473 ft 454 kts 293°
2026-04-30 09:31 50.36021 11.01367 38489 ft 454 kts 293°
2026-04-30 09:31 50.37959 10.91967 38492 ft 454 kts 293°
2026-04-30 09:32 50.39882 10.82544 38496 ft 453 kts 293°
2026-04-30 09:32 50.41784 10.73127 38501 ft 453 kts 293°
2026-04-30 09:33 50.43681 10.63703 38476 ft 453 kts 292°
2026-04-30 09:33 50.45570 10.54272 38490 ft 453 kts 292°
2026-04-30 09:34 50.47447 10.44841 38492 ft 453 kts 292°
2026-04-30 09:34 50.49326 10.35477 38494 ft 452 kts 292°
2026-04-30 09:35 50.51226 10.26057 38481 ft 452 kts 292°
2026-04-30 09:35 50.53105 10.16628 38477 ft 452 kts 292°
2026-04-30 09:36 50.54977 10.07185 38483 ft 452 kts 292°
2026-04-30 09:36 50.56538 9.99263 38485 ft 452 kts 292°
2026-04-30 09:37 50.58698 9.88279 38481 ft 452 kts 292°
2026-04-30 09:37 50.60248 9.80359 38460 ft 452 kts 291°
2026-04-30 09:38 50.62093 9.70890 38465 ft 452 kts 291°
2026-04-30 09:38 50.63927 9.61404 38472 ft 453 kts 291°
2026-04-30 09:39 50.65753 9.51915 38470 ft 453 kts 291°
2026-04-30 09:39 50.67567 9.42477 38472 ft 453 kts 291°
2026-04-30 09:40 50.69381 9.32967 38456 ft 453 kts 291°
2026-04-30 09:40 50.71193 9.23387 38464 ft 453 kts 291°
2026-04-30 09:41 50.72948 9.13900 38471 ft 454 kts 290°
2026-04-30 09:41 50.74613 9.04288 38470 ft 454 kts 289°
2026-04-30 09:42 50.76266 8.94590 38476 ft 454 kts 289°
2026-04-30 09:42 50.77922 8.84956 38479 ft 455 kts 289°
2026-04-30 09:43 50.79573 8.75378 38480 ft 455 kts 289°
2026-04-30 09:43 50.81223 8.65728 38482 ft 455 kts 289°
2026-04-30 09:44 50.82870 8.56072 38479 ft 455 kts 289°
2026-04-30 09:44 50.84513 8.46405 38462 ft 455 kts 289°
2026-04-30 09:45 50.86138 8.36718 38449 ft 456 kts 289°
2026-04-30 09:45 50.87753 8.27015 38441 ft 456 kts 289°
2026-04-30 09:46 50.89371 8.17289 38442 ft 457 kts 289°
2026-04-30 09:46 50.90990 8.07554 38446 ft 457 kts 289°
2026-04-30 09:47 50.92617 7.97812 38431 ft 456 kts 291°
2026-04-30 09:47 50.94730 7.88360 38442 ft 455 kts 293°
2026-04-30 09:48 50.96862 7.78897 38453 ft 456 kts 293°
2026-04-30 09:48 50.98987 7.69415 38455 ft 456 kts 293°
2026-04-30 09:49 51.01107 7.59927 38455 ft 456 kts 293°
2026-04-30 09:49 51.03218 7.50424 38437 ft 456 kts 292°
2026-04-30 09:50 51.05322 7.40897 38435 ft 457 kts 292°
2026-04-30 09:50 51.07417 7.31362 38443 ft 457 kts 292°
2026-04-30 09:51 51.09509 7.21815 38439 ft 457 kts 292°
2026-04-30 09:51 51.11594 7.12266 38440 ft 457 kts 292°
2026-04-30 09:52 51.13671 7.02691 38417 ft 458 kts 292°
2026-04-30 09:52 51.15744 6.93107 38421 ft 458 kts 292°
2026-04-30 09:53 51.17808 6.83499 38428 ft 459 kts 292°
2026-04-30 09:53 51.19867 6.73874 38429 ft 459 kts 292°
2026-04-30 09:54 51.21908 6.64299 38412 ft 459 kts 291°
2026-04-30 09:54 51.23955 6.54651 38418 ft 460 kts 291°
2026-04-30 09:55 51.25999 6.44966 38410 ft 461 kts 291°
2026-04-30 09:55 51.28040 6.35266 38418 ft 461 kts 291°
2026-04-30 09:56 51.30069 6.25541 38424 ft 462 kts 291°
2026-04-30 09:56 51.32092 6.15800 38403 ft 461 kts 290°
2026-04-30 09:57 51.34108 6.06066 38414 ft 461 kts 290°
2026-04-30 09:57 51.36116 5.96316 38416 ft 461 kts 290°
2026-04-30 09:58 51.38113 5.86558 38412 ft 461 kts 290°
2026-04-30 09:58 51.40306 5.76915 38416 ft 461 kts 293°
2026-04-30 09:59 51.45012 5.57817 38398 ft 461 kts 292°
2026-04-30 10:00 51.48415 5.43377 38402 ft 461 kts 292°
2026-04-30 10:01 51.51788 5.28910 38394 ft 461 kts 292°
2026-04-30 10:02 51.55136 5.14495 38386 ft 461 kts 291°
2026-04-30 10:02 51.57379 5.04824 38391 ft 462 kts 291°
2026-04-30 10:03 51.59612 4.95140 38394 ft 462 kts 291°
2026-04-30 10:03 51.61834 4.85436 38397 ft 462 kts 291°
2026-04-30 10:04 51.64047 4.75712 38390 ft 463 kts 291°
2026-04-30 10:04 51.66256 4.65982 38376 ft 463 kts 291°
2026-04-30 10:05 51.68459 4.56244 38376 ft 463 kts 291°
2026-04-30 10:05 51.70658 4.46491 38387 ft 463 kts 291°
2026-04-30 10:06 51.72848 4.36738 38385 ft 463 kts 290°
2026-04-30 10:06 51.75023 4.26957 38387 ft 463 kts 290°
2026-04-30 10:07 51.77193 4.17151 38389 ft 466 kts 290°
2026-04-30 10:07 51.79361 4.07335 38257 ft 465 kts 290°
2026-04-30 10:07 51.80447 4.02419 37754 ft 464 kts 290°
2026-04-30 10:08 51.81526 3.97527 37314 ft 461 kts 290°
2026-04-30 10:08 51.82591 3.92664 36856 ft 458 kts 290°
2026-04-30 10:08 51.83644 3.87823 36292 ft 457 kts 290°
2026-04-30 10:08 51.84677 3.82913 35457 ft 464 kts 288°
2026-04-30 10:09 51.85619 3.78027 35057 ft 459 kts 287°
2026-04-30 10:09 51.86515 3.73091 34639 ft 456 kts 286°
2026-04-30 10:09 51.87385 3.68172 33972 ft 456 kts 286°
2026-04-30 10:09 51.88270 3.63154 33246 ft 458 kts 286°
2026-04-30 10:10 51.89141 3.58267 32670 ft 456 kts 286°
2026-04-30 10:10 51.90029 3.53354 32149 ft 453 kts 286°
2026-04-30 10:10 51.90916 3.48476 31645 ft 450 kts 287°
2026-04-30 10:10 51.91799 3.43633 31135 ft 447 kts 287°
2026-04-30 10:11 51.92674 3.38821 30643 ft 444 kts 286°
2026-04-30 10:11 51.93543 3.34032 30102 ft 441 kts 286°
2026-04-30 10:11 51.94400 3.29281 29559 ft 438 kts 286°
2026-04-30 10:11 51.95244 3.24568 29029 ft 434 kts 286°
2026-04-30 10:12 51.96004 3.19857 28499 ft 431 kts 279°
2026-04-30 10:12 51.96302 3.15053 28007 ft 426 kts 269°
2026-04-30 10:12 51.96102 3.10320 27743 ft 415 kts 262°
2026-04-30 10:12 51.95791 3.05729 27600 ft 405 kts 263°
2026-04-30 10:13 51.95502 3.01239 27378 ft 397 kts 263°
2026-04-30 10:13 51.95221 2.96800 26987 ft 394 kts 263°
2026-04-30 10:13 51.94941 2.92398 26569 ft 392 kts 263°
2026-04-30 10:13 51.94662 2.88020 26181 ft 389 kts 263°
2026-04-30 10:14 51.94377 2.83676 25792 ft 386 kts 262°
2026-04-30 10:14 51.94089 2.79366 25392 ft 384 kts 262°
2026-04-30 10:14 51.93505 2.70813 24560 ft 381 kts 262°
2026-04-30 10:15 51.93215 2.66568 24173 ft 378 kts 262°
2026-04-30 10:15 51.92928 2.62355 23884 ft 375 kts 263°
2026-04-30 10:15 51.92641 2.58152 23610 ft 376 kts 262°
2026-04-30 10:15 51.92356 2.54001 23342 ft 375 kts 262°
2026-04-30 10:16 51.92067 2.49809 23074 ft 374 kts 262°
2026-04-30 10:16 51.91780 2.45635 22801 ft 372 kts 262°
2026-04-30 10:16 51.91491 2.41487 22543 ft 369 kts 262°
2026-04-30 10:17 51.90904 2.33258 22344 ft 368 kts 261°
2026-04-30 10:17 51.90534 2.25014 21751 ft 365 kts 266°
2026-04-30 10:17 51.90459 2.20890 21119 ft 369 kts 267°
2026-04-30 10:18 51.90404 2.16737 20628 ft 369 kts 267°
2026-04-30 10:18 51.90346 2.12588 20126 ft 368 kts 266°
2026-04-30 10:18 51.90273 2.08452 19647 ft 367 kts 266°
2026-04-30 10:19 51.90081 2.00296 19037 ft 355 kts 265°
2026-04-30 10:19 51.89977 1.96336 18800 ft 350 kts 265°
2026-04-30 10:19 51.90003 1.92393 18563 ft 351 kts 275°
2026-04-30 10:19 51.90574 1.88558 18347 ft 352 kts 290°
2026-04-30 10:20 51.91695 1.85036 18337 ft 354 kts 304°
2026-04-30 10:20 51.95018 1.78459 18342 ft 393 kts 310°
2026-04-30 10:20 51.96783 1.75043 18339 ft 397 kts 310°
2026-04-30 10:21 51.98557 1.71614 18339 ft 397 kts 310°
2026-04-30 10:21 52.00326 1.68183 18347 ft 397 kts 310°
2026-04-30 10:21 52.02095 1.64745 18348 ft 397 kts 310°
2026-04-30 10:21 52.03869 1.61296 18337 ft 398 kts 310°
2026-04-30 10:22 52.05613 1.57897 18348 ft 397 kts 310°
2026-04-30 10:22 52.07377 1.54452 18344 ft 397 kts 310°
2026-04-30 10:22 52.09143 1.50997 18350 ft 396 kts 310°
2026-04-30 10:22 52.10901 1.47550 18349 ft 396 kts 310°
2026-04-30 10:23 52.12658 1.44103 18346 ft 396 kts 309°
2026-04-30 10:23 52.14409 1.40653 18338 ft 395 kts 307°
2026-04-30 10:23 52.15819 1.36831 18331 ft 394 kts 292°
2026-04-30 10:23 52.16596 1.32580 18351 ft 390 kts 277°
2026-04-30 10:24 52.16946 1.28206 18355 ft 389 kts 275°
2026-04-30 10:24 52.17282 1.23838 18352 ft 389 kts 275°
2026-04-30 10:24 52.17621 1.19473 18356 ft 387 kts 275°
2026-04-30 10:24 52.17958 1.15197 18285 ft 374 kts 275°
2026-04-30 10:25 52.18286 1.11073 18148 ft 360 kts 275°
2026-04-30 10:25 52.18607 1.07050 17498 ft 363 kts 275°
2026-04-30 10:25 52.18930 1.02912 16822 ft 367 kts 275°
2026-04-30 10:25 52.19250 0.98795 16317 ft 366 kts 275°
2026-04-30 10:26 52.19565 0.94691 15827 ft 364 kts 275°
2026-04-30 10:26 52.19770 0.91984 15555 ft 362 kts 275°
2026-04-30 10:26 52.20074 0.87963 15311 ft 353 kts 275°
2026-04-30 10:26 52.20470 0.82733 14983 ft 342 kts 275°
2026-04-30 10:27 52.20660 0.80205 14822 ft 338 kts 274°
2026-04-30 10:27 52.20944 0.76420 14572 ft 334 kts 274°
2026-04-30 10:27 52.21223 0.72669 14378 ft 333 kts 274°
2026-04-30 10:27 52.21499 0.68923 14301 ft 333 kts 274°
2026-04-30 10:28 52.21775 0.65165 14317 ft 340 kts 274°
2026-04-30 10:28 52.22060 0.61310 14308 ft 337 kts 274°
2026-04-30 10:28 52.22338 0.57550 14308 ft 333 kts 274°
2026-04-30 10:28 52.22612 0.53801 14310 ft 332 kts 274°
2026-04-30 10:29 52.22882 0.50061 14310 ft 332 kts 274°
2026-04-30 10:29 52.23153 0.46314 14314 ft 331 kts 274°
2026-04-30 10:29 52.23418 0.42590 14311 ft 330 kts 274°
2026-04-30 10:29 52.23681 0.38870 14300 ft 330 kts 274°
2026-04-30 10:30 52.23944 0.35158 14144 ft 328 kts 274°
2026-04-30 10:30 52.24205 0.31511 13739 ft 327 kts 274°
2026-04-30 10:30 52.24471 0.27790 13339 ft 325 kts 274°
2026-04-30 10:30 52.24727 0.24182 12952 ft 324 kts 274°
2026-04-30 10:31 52.24987 0.20542 12516 ft 322 kts 274°
2026-04-30 10:31 52.25242 0.16938 11956 ft 319 kts 274°
2026-04-30 10:31 52.25494 0.13347 11375 ft 318 kts 274°
2026-04-30 10:31 52.25743 0.09766 10999 ft 317 kts 274°
2026-04-30 10:32 52.25990 0.06194 10643 ft 316 kts 274°
2026-04-30 10:32 52.26233 0.02647 10322 ft 313 kts 273°
2026-04-30 10:32 52.26294 -0.00847 10068 ft 302 kts 257°
2026-04-30 10:32 52.25701 -0.04009 9939 ft 283 kts 237°
2026-04-30 10:33 52.24586 -0.06505 9809 ft 264 kts 219°
2026-04-30 10:33 52.23302 -0.08584 9632 ft 257 kts 218°
2026-04-30 10:33 52.22034 -0.10620 9384 ft 254 kts 218°
2026-04-30 10:33 52.20776 -0.12632 9256 ft 254 kts 218°
2026-04-30 10:34 52.19515 -0.14646 9112 ft 253 kts 218°
2026-04-30 10:34 52.18262 -0.16648 8817 ft 251 kts 218°
2026-04-30 10:34 52.17017 -0.18640 8499 ft 250 kts 218°
2026-04-30 10:34 52.15777 -0.20625 8193 ft 250 kts 218°
2026-04-30 10:35 52.14542 -0.22603 7901 ft 248 kts 218°
2026-04-30 10:35 52.13319 -0.24563 7619 ft 246 kts 217°
2026-04-30 10:35 52.12099 -0.26513 7324 ft 245 kts 217°
2026-04-30 10:35 52.10886 -0.28449 7028 ft 244 kts 217°
2026-04-30 10:36 52.09687 -0.30362 6867 ft 242 kts 217°
2026-04-30 10:36 52.08479 -0.32282 6754 ft 243 kts 217°
2026-04-30 10:36 52.07274 -0.34199 6630 ft 242 kts 217°
2026-04-30 10:36 52.06071 -0.36110 6499 ft 241 kts 217°
2026-04-30 10:37 52.04874 -0.38011 6372 ft 240 kts 217°
2026-04-30 10:37 52.03680 -0.39910 6252 ft 241 kts 217°
2026-04-30 10:37 52.02487 -0.41808 6121 ft 240 kts 217°
2026-04-30 10:37 52.01296 -0.43704 5995 ft 239 kts 217°
2026-04-30 10:38 52.00112 -0.45587 5741 ft 237 kts 217°
2026-04-30 10:38 51.98933 -0.47455 5421 ft 237 kts 216°
2026-04-30 10:38 51.97757 -0.49315 5103 ft 236 kts 216°
2026-04-30 10:38 51.96587 -0.51164 4784 ft 235 kts 216°
2026-04-30 10:39 51.95433 -0.52984 4463 ft 234 kts 216°
2026-04-30 10:39 51.94265 -0.54828 4133 ft 235 kts 216°
2026-04-30 10:39 51.93096 -0.56675 3789 ft 235 kts 216°
2026-04-30 10:39 51.91926 -0.58524 3448 ft 235 kts 216°
2026-04-30 10:40 51.90769 -0.60365 3270 ft 227 kts 216°
2026-04-30 10:40 51.89504 -0.61607 3132 ft 202 kts 187°
2026-04-30 10:40 51.88207 -0.61637 3012 ft 176 kts 163°
2026-04-30 10:40 51.87120 -0.61089 2865 ft 155 kts 152°
2026-04-30 10:41 51.86127 -0.60384 2640 ft 156 kts 143°
2026-04-30 10:41 51.85497 -0.59028 2511 ft 149 kts 116°
2026-04-30 10:41 51.85131 -0.57481 2420 ft 147 kts 111°
2026-04-30 10:41 51.84790 -0.55930 2344 ft 146 kts 107°
2026-04-30 10:42 51.84585 -0.54315 2268 ft 147 kts 101°
2026-04-30 10:42 51.84726 -0.52673 2203 ft 151 kts 74°
2026-04-30 10:42 51.85019 -0.51130 2113 ft 138 kts 81°
2026-04-30 10:42 51.85256 -0.49669 1999 ft 132 kts 80°
2026-04-30 10:43 51.85493 -0.48254 1813 ft 129 kts 81°
2026-04-30 10:43 51.85732 -0.46855 1640 ft 129 kts 80°
2026-04-30 10:43 51.85972 -0.45455 1461 ft 129 kts 79°
2026-04-30 10:43 51.86213 -0.44067 1292 ft 128 kts 79°
2026-04-30 10:44 51.86452 -0.42681 1112 ft 129 kts 76°
2026-04-30 10:44 51.86697 -0.41269 938 ft 131 kts 79°
2026-04-30 10:44 51.86943 -0.39854 765 ft 129 kts 77°
2026-04-30 10:44 51.87181 -0.38467 578 ft 128 kts 77°
2026-04-30 10:45 51.87401 -0.37195 521 ft 98 kts 73°
2026-04-30 10:45 51.87543 -0.36369 521 ft 63 kts 74°
2026-04-30 10:45 51.87614 -0.35973 516 ft 12 kts 73°
2026-04-30 10:45 51.87683 -0.35925 516 ft 13 kts 349°
2026-04-30 10:46 51.87771 -0.35995 516 ft 15 kts 311°
2026-04-30 10:46 51.87771 -0.36152 518 ft 15 kts 254°
2026-04-30 10:46 51.87740 -0.36327 518 ft 17 kts 254°
2026-04-30 10:46 51.87707 -0.36518 520 ft 18 kts 254°
2026-04-30 10:47 51.87673 -0.36716 522 ft 18 kts 254°
2026-04-30 10:47 51.87645 -0.36889 526 ft 11 kts 267°
2026-04-30 10:47 51.87714 -0.36970 521 ft 16 kts 343°
2026-04-30 10:47 51.87846 -0.37040 512 ft 23 kts 342°
2026-04-30 10:48 51.87998 -0.37121 509 ft 16 kts 341°
2026-04-30 10:48 51.88043 -0.37204 508 ft 11 kts 261°
2026-04-30 10:48 51.88025 -0.37282 508 ft 3 kts 225°
2026-04-30 10:48 51.88000 -0.37282 508 ft 5 kts 165°
2026-04-30 10:49 51.87971 -0.37266 508 ft 2 kts 161°
2026-04-30 10:49 51.87969 -0.37265 508 ft 0 kts 161°